SL-8 R/B

Satellite information

Favourite Embed

Satellite Type and Status

ROCKET BODYIN ORBIT

Key statistics

Satellite SL-8 R/B at a glance.

Uptime

21296

Days in orbit

Revolutions

≈ 14.5

Per day

Orbit

LEO

Low Earth Orbit

Inclination

74.0

Latest

Satellite identification and parameters

Extended collection of information and parameters for SL-8 R/B.

Object identification

Identified? True

Debris? False

Object name: SL-8 R/B

International designator: 1967-045B

Object number (NORAD): 2802

Object ID (CCSDS): 2802

Country: COMMONWEALTH OF INDEPENDENT STATES (CIS)

Current information (Y/N): Y

RCS size: LARGE

Orbital parameters

Period: 99.625 minutes

Inclination: 74.0138 deg

SMA: 7118.776 km

Apoapsis: 786.215 km

Periapsis: 695.066 km

RAAN: 339.1609 deg

Eccentricy: 0.00640196

Argument of periapsis: 30.827 deg

Mean anomaly: 329.6621 deg

Mean motion: 14.45422485 rev/day

Mean motion (dot): 0.00000585 rev/day2

B* drag term: 0.00016982962 1/REarth

Two-line elements (TLE)

Creation date: Sept. 3, 2025, 2:21 a.m.

Reference frame: TEME

Reference center: EARTH

Epoch: Sept. 2, 2025, 4:16 p.m. UTC

TLE line 0: 0 SL-8 R/B

TLE line 1: 1 02802U 67045B 25245.67792970 .00000585 00000-0 16983-3 0 9997

TLE line 2: 2 02802 74.0138 339.1609 0064020 30.8270 329.6621 14.45422485 61858

Live tracking on map

Real-time ground track for satellite SL-8 R/B.

In-orbit conjunctions

A list of the most updated potential collisions computed for object SL-8 R/B.

Target Orbit TCA Probability of collision Miss distance Type
DMSP 5D-2 F13 DEB SSO 2025-07-19 22:53:02 0.0007439299 79.0 (m) DEBRIS
CZ-6A DEB SSO 2025-07-15 20:08:25 0.0006941105 201.0 (m) DEBRIS
FENGYUN 1C DEB * SSO 2025-05-24 21:25:53 0.0001740194 630.0 (m) DEBRIS
FENGYUN 1C DEB SSO 2025-03-05 05:27:09 0.0003370947 334.0 (m) DEBRIS
COSMOS 2251 DEB LEO 2024-12-12 03:39:19 0.0004820216 318.0 (m) DEBRIS

Associated space launch

The Zaliv-GVM satellites were mass models of the Zaliv navigation satellites, which were launched as payload substitutes on some Kosmos-3M evaluation launches.

SL-8 R/B was lifted into orbit during the mission ‘Kosmos-3M | Zaliv-GVM 1’, on board a Kosmos-3M space rocket.

The launch took place on May 15, 1967, 11 a.m. from 132/2.

For more information about the launch, click the button.

Launch to space Kosmos-3M | Zaliv-GVM 1
Kosmos-3M | Zaliv-GVM 1

Agency: N/A

Status: Launch Successful

Launch date: May 15, 1967, 11 a.m. UTC

Rocket: Kosmos-3M

Launch pad: 132/2

Location: Plesetsk Cosmodrome, Russian Federation

...

Latest news about this satellite

There are no fresh news available about this satellite. Check back as we update our databases every day.


Newsletter sign-up

Weekly statistics, charts and insights to help you stay on top of the space industry.